Location: Grand Mazuras
(45.9128°N, 1.7636°E)
Time: 06:16:51
(UTC+00:00)

Cosmos 2251 Rocket - Pass Details

Date: 18 April 2021
Orbit: 765 x 791 km, 74.0° (Epoch: 15 May)

Event Time Altitude Azimuth Distance (km) Brightness Sun altitude
Rises 19:53:37 0° 187° (S) 3,273 6.5 -11.9°
Reaches altitude 10° 19:56:02 10° 184° (S) 2,347 5.8 -12.3°
Maximum altitude 20:01:15 58° 106° (ESE) 919 3.6 -13.1°
Drops below altitude 10° 20:06:29 10° 29° (NNE) 2,352 6.1 -13.8°
Sets 20:08:55 0° 25° (NNE) 3,281 6.9 -14.2°
